| time (UTC) | temp F | wind direction | speed knots | gust knots | rain 1hr in | rain 24hr in | rain mn in | humidity % | barometer mb |
| 20260502130155 | 71 | 240 | 1.7 | 7.0 | 0.00 | 0.00 | 0.00 | 53 | 1015.0 |
| 20260502123019 | 71 | 188 | 1.7 | 4.3 | 0.00 | 0.00 | 0.00 | 55 | 1015.5 |
| 20260502121517 | 71 | 227 | 0.9 | 5.2 | 0.00 | 0.00 | 0.00 | 54 | 1015.7 |
| 20260502114548 | 70 | 251 | 0.9 | 6.1 | 0.00 | 0.00 | 0.00 | 50 | 1016.3 |
| 20260502113105 | 70 | 171 | 0.9 | 6.1 | 0.00 | 0.00 | 0.00 | 49 | 1016.3 |
| 20260502111552 | 69 | 189 | 0.9 | 5.2 | 0.00 | 0.00 | 0.00 | 53 | 1016.4 |
| 20260502104506 | 69 | 213 | 1.7 | 6.1 | 0.00 | 0.00 | 0.00 | 52 | 1016.7 |
| 20260502103015 | 68 | 194 | 0.9 | 5.2 | 0.00 | 0.00 | 0.00 | 54 | 1016.8 |
| 20260502101638 | 67 | 199 | 1.7 | 6.1 | 0.00 | 0.00 | 0.00 | 54 | 1017.0 |
| 20260502100159 | 68 | 242 | 0.9 | 3.5 | 0.00 | 0.00 | 0.00 | 55 | 1017.1 |
| 20260502070058 | 57 | 180 | 0.0 | 3.5 | 0.00 | 0.00 | 0.00 | 73 | 1017.8 |
| 20260502064546 | 56 | 190 | 0.0 | 3.5 | 0.00 | 0.00 | 0.00 | 72 | 1017.9 |
| 20260502063020 | 55 | 172 | 0.0 | 0.9 | 0.00 | 0.00 | 0.00 | 73 | 1018.1 |
| 20260502061624 | 55 | 152 | 0.0 | 1.7 | 0.00 | 0.00 | 0.00 | 74 | 1018.1 |
| 20260502060154 | 54 | 176 | 0.0 | 1.7 | 0.00 | 0.00 | 0.00 | 76 | 1018.4 |
| 20260502054622 | 53 | 233 | 0.0 | 0.9 | 0.00 | 0.00 | 0.00 | 77 | 1018.4 |
| 20260502053109 | 52 | 247 | 0.0 | 0.9 | 0.00 | 0.00 | 0.00 | 79 | 1018.5 |
| 20260502051548 | 52 | 192 | 0.0 | 0.9 | 0.00 | 0.00 | 0.00 | 80 | 1018.5 |
| 20260502050140 | 51 | 229 | 0.0 | 0.9 | 0.00 | 0.00 | 0.00 | 81 | 1018.7 |
| 20260502044557 | 50 | 229 | 0.0 | 0.0 | 0.00 | 0.00 | 0.00 | 82 | 1018.8 |
| 20260502043143 | 50 | 229 | 0.0 | 0.9 | 0.00 | 0.00 | 0.00 | 81 | 1019.0 |
| 20260502041610 | 50 | 234 | 0.0 | 0.9 | 0.00 | 0.00 | 0.00 | 81 | 1019.1 |
| 20260502040008 | 50 | 234 | 0.0 | 0.9 | 0.00 | 0.00 | 0.00 | 81 | 1019.2 |
| 20260502034503 | 50 | 157 | 0.0 | 0.9 | 0.00 | 0.00 | 0.00 | 80 | 1019.4 |
| 20260502033104 | 49 | 156 | 0.0 | 1.7 | 0.00 | 0.00 | 0.00 | 81 | 1019.7 |
| 20260502031516 | 49 | 186 | 0.0 | 0.9 | 0.00 | 0.00 | 0.00 | 81 | 1019.9 |
| 20260502030139 | 49 | 184 | 0.0 | 0.9 | 0.00 | 0.00 | 0.00 | 80 | 1019.9 |
| 20260502024556 | 49 | 184 | 0.0 | 0.9 | 0.00 | 0.00 | 0.00 | 79 | 1020.0 |
| 20260502023147 | 49 | 184 | 0.0 | 0.9 | 0.00 | 0.00 | 0.00 | 80 | 1020.3 |
| 20260502021617 | 48 | 225 | 0.0 | 0.9 | 0.00 | 0.00 | 0.00 | 81 | 1020.4 |
| 20260502020009 | 47 | 196 | 0.0 | 1.7 | 0.00 | 0.00 | 0.00 | 83 | 1020.7 |
| 20260502014625 | 47 | 151 | 0.0 | 0.9 | 0.00 | 0.00 | 0.00 | 84 | 1020.9 |
| 20260502013013 | 46 | 244 | 0.0 | 0.0 | 0.00 | 0.00 | 0.00 | 84 | 1021.0 |
| 20260502011508 | 46 | 244 | 0.0 | 0.0 | 0.00 | 0.00 | 0.00 | 84 | 1021.3 |
| 20260502010055 | 46 | 244 | 0.0 | 0.0 | 0.00 | 0.00 | 0.00 | 84 | 1021.5 |
| 20260502004600 | 46 | 244 | 0.0 | 0.9 | 0.00 | 0.00 | 0.00 | 83 | 1021.7 |
| 20260502003104 | 46 | 245 | 0.0 | 0.0 | 0.00 | 0.00 | 0.00 | 83 | 1021.8 |
| 20260502001602 | 46 | 245 | 0.0 | 0.0 | 0.00 | 0.00 | 0.00 | 82 | 1021.9 |
| 20260502000147 | 46 | 245 | 0.0 | 0.0 | 0.00 | 0.00 | 0.00 | 82 | 1022.0 |
| 20260501234610 | 46 | 245 | 0.0 | 0.0 | 0.00 | 0.00 | 0.00 | 82 | 1022.1 |
| 20260501233148 | 47 | 245 | 0.0 | 0.0 | 0.00 | 0.00 | 0.00 | 81 | 1022.2 |
| 20260501231601 | 47 | 245 | 0.0 | 0.0 | 0.00 | 0.00 | 0.00 | 80 | 1022.4 |
| 20260501230059 | 47 | 245 | 0.0 | 0.0 | 0.00 | 0.00 | 0.00 | 79 | 1022.5 |
| 20260501224515 | 47 | 245 | 0.0 | 0.0 | 0.00 | 0.00 | 0.00 | 80 | 1022.6 |
| 20260501223143 | 48 | 244 | 0.0 | 0.0 | 0.00 | 0.00 | 0.00 | 78 | 1022.7 |
| 20260501221626 | 48 | 244 | 0.0 | 0.0 | 0.00 | 0.00 | 0.00 | 78 | 1022.8 |
| 20260501220150 | 48 | 244 | 0.0 | 0.0 | 0.00 | 0.00 | 0.00 | 77 | 1022.8 |
| 20260501214610 | 49 | 246 | 0.0 | 0.0 | 0.00 | 0.00 | 0.00 | 78 | 1023.0 |
| 20260501213152 | 49 | 246 | 0.0 | 0.0 | 0.00 | 0.00 | 0.00 | 76 | 1023.1 |
| 20260501211616 | 49 | 246 | 0.0 | 1.7 | 0.00 | 0.00 | 0.00 | 76 | 1023.3 |
| 20260501210156 | 50 | 246 | 0.0 | 0.0 | 0.00 | 0.00 | 0.00 | 75 | 1023.3 |
| 20260501204624 | 51 | 246 | 0.0 | 0.0 | 0.00 | 0.00 | 0.00 | 74 | 1023.5 |
| 20260501203057 | 51 | 246 | 0.0 | 0.0 | 0.00 | 0.00 | 0.00 | 74 | 1023.6 |
| 20260501201626 | 52 | 246 | 0.0 | 0.9 | 0.00 | 0.00 | 0.00 | 74 | 1023.6 |
| 20260501200048 | 53 | 246 | 0.0 | 0.0 | 0.00 | 0.00 | 0.00 | 72 | 1023.9 |
| 20260501194627 | 53 | 246 | 0.0 | 0.0 | 0.00 | 0.00 | 0.00 | 72 | 1023.9 |
| 20260501193010 | 54 | 246 | 0.0 | 0.9 | 0.00 | 0.00 | 0.00 | 72 | 1023.9 |
| 20260501191511 | 56 | 225 | 0.0 | 0.9 | 0.00 | 0.00 | 0.00 | 70 | 1024.1 |
| 20260501184608 | 58 | 239 | 0.0 | 0.9 | 0.00 | 0.00 | 0.00 | 69 | 1024.3 |
| 20260501183146 | 59 | 239 | 0.0 | 1.7 | 0.00 | 0.00 | 0.00 | 67 | 1024.3 |
| 20260501181617 | 60 | 211 | 0.0 | 1.7 | 0.00 | 0.00 | 0.00 | 64 | 1024.3 |
| 20260501180050 | 60 | 222 | 0.0 | 1.7 | 0.00 | 0.00 | 0.00 | 63 | 1024.3 |
| 20260501174552 | 61 | 190 | 0.0 | 0.9 | 0.00 | 0.00 | 0.00 | 62 | 1024.2 |
| 20260501173138 | 62 | 188 | 0.0 | 0.9 | 0.00 | 0.00 | 0.00 | 61 | 1024.3 |
| 20260501171602 | 62 | 188 | 0.0 | 1.7 | 0.00 | 0.00 | 0.00 | 59 | 1024.6 |
| 20260501170150 | 62 | 240 | 0.0 | 1.7 | 0.00 | 0.00 | 0.00 | 56 | 1024.9 |
| 20260501164613 | 63 | 207 | 0.0 | 2.6 | 0.00 | 0.00 | 0.00 | 55 | 1025.0 |
| 20260501163045 | 63 | 196 | 0.0 | 1.7 | 0.00 | 0.00 | 0.00 | 52 | 1025.2 |
| 20260501161621 | 63 | 212 | 0.9 | 3.5 | 0.00 | 0.00 | 0.00 | 52 | 1025.2 |
| 20260501160157 | 63 | 212 | 0.9 | 2.6 | 0.00 | 0.00 | 0.00 | 54 | 1025.5 |
| 20260501154624 | 64 | 202 | 0.9 | 2.6 | 0.00 | 0.00 | 0.00 | 52 | 1025.6 |
| 20260501153158 | 64 | 226 | 0.0 | 2.6 | 0.00 | 0.00 | 0.00 | 54 | 1026.0 |
| 20260501151625 | 65 | 246 | 0.0 | 3.5 | 0.00 | 0.00 | 0.00 | 50 | 1026.1 |